Stations météo

Publicité
Dieppe, France (7040): Température de l'air & dewpoint: 10.07.2019 00:00:00 - 16.07.2019 00:00:00 (CEST)Dieppe, France (7040): Température de l'air 5cm: 10.07.2019 00:00:00 - 16.07.2019 00:00:00 (CEST)Dieppe, France (7040): Vitesse du vent & gusts: 10.07.2019 00:00:00 - 16.07.2019 00:00:00 (CEST)Dieppe, France (7040): Direction du vent: 10.07.2019 00:00:00 - 16.07.2019 00:00:00 (CEST)Dieppe, France (7040): reduced air pressure: 10.07.2019 00:00:00 - 16.07.2019 00:00:00 (CEST)Dieppe, France (7040): visibility: 10.07.2019 00:00:00 - 16.07.2019 00:00:00 (CEST)Dieppe, France (7040): Quantités de précipitations: 10.07.2019 00:00:00 - 16.07.2019 00:00:00 (CEST)
Date & Time tt [°C] td [°C] tt 5cm [°C] ff [km/h] ff [knt] fx [km/h] fx [knt] dd ppp [hPa] vv [km] rr [mm]
16.07.2019 00:00:00 - - - - - - - - - - -
15.07.2019 23:00:00 15,9 10,9 15,1 19 10 44 24 ENE 1021,1 18 0,0
15.07.2019 22:00:00 17,1 12,0 16,6 21 11 43 23 NE 1020,8 - 0,0
15.07.2019 21:00:00 17,1 13,4 16,8 17 9 40 21 NNE 1020,8 - 0,0
15.07.2019 20:00:00 17,4 12,7 18,2 16 9 37 20 NE 1020,9 18 0,0
15.07.2019 19:00:00 17,6 12,1 18,7 19 11 41 22 NNE 1021,1 - 0,0
15.07.2019 18:00:00 17,4 10,5 19,0 20 11 33 18 NNE 1021,4 - 0,0
15.07.2019 17:00:00 18,1 10,7 20,7 14 7 32 17 NE 1021,8 20 0,0
15.07.2019 16:00:00 17,7 10,8 20,3 16 9 31 17 NNE 1022,0 - 0,0
15.07.2019 15:00:00 17,8 10,7 20,7 14 8 31 17 NNE 1022,1 - 0,0
15.07.2019 14:00:00 18,0 10,4 18,8 19 10 29 16 NNE 1022,0 12 0,0
15.07.2019 13:00:00 17,0 10,1 19,0 9 5 25 13 NE 1022,2 - 0,0
15.07.2019 12:00:00 16,9 10,0 18,1 15 8 25 14 ENE 1022,1 - 0,0
15.07.2019 11:00:00 16,6 9,8 17,3 10 5 23 12 ENE 1022,1 - 0,0
15.07.2019 10:00:00 16,2 10,1 16,8 12 6 23 12 E 1022,1 - 0,0
15.07.2019 09:00:00 15,8 9,7 15,0 10 6 18 10 E 1021,9 - 0,0
15.07.2019 08:00:00 14,9 10,1 14,5 7 4 17 9 E 1021,6 - 0,0
15.07.2019 07:00:00 14,4 9,2 14,0 9 5 16 9 ESE 1021,5 - 0,0
15.07.2019 06:00:00 14,7 9,3 14,2 7 4 29 16 E 1021,5 - 0,0
15.07.2019 05:00:00 14,6 9,8 14,2 10 5 31 17 E 1021,6 - 0,0
15.07.2019 04:00:00 15,3 9,9 14,2 16 9 37 20 NE 1021,7 - 0,0
15.07.2019 03:00:00 15,1 11,7 14,5 13 7 36 19 E 1022,0 - 0,0
15.07.2019 02:00:00 15,7 11,9 15,2 18 10 47 25 ENE 1022,2 10 0,0
15.07.2019 01:00:00 16,8 11,5 16,2 22 12 46 25 NE 1022,0 - 0,0
15.07.2019 00:00:00 16,9 11,4 16,4 32 17 47 25 ENE 1022,0 - 0,0
14.07.2019 23:00:00 17,4 11,2 16,7 22 12 41 22 NE 1021,8 - 0,0
14.07.2019 22:00:00 17,9 11,0 17,2 21 11 46 25 NE 1021,6 - 0,0
14.07.2019 21:00:00 18,4 11,0 18,1 27 14 47 26 NE 1021,4 - 0,0
14.07.2019 20:00:00 18,7 11,0 19,4 25 13 53 29 NE 1021,6 - 0,0
14.07.2019 19:00:00 18,6 12,8 19,5 34 18 53 29 NNE 1021,6 - 0,0
14.07.2019 18:00:00 18,7 12,7 20,0 26 14 53 29 NNE 1021,5 - 0,0
14.07.2019 17:00:00 18,8 12,5 19,5 29 15 54 29 NNE 1021,3 - 0,0
14.07.2019 16:00:00 18,5 13,1 22,2 32 17 54 29 NNE 1021,5 - 0,0
14.07.2019 15:00:00 18,6 13,5 21,9 27 15 46 25 NNE 1022,1 - 0,0
14.07.2019 14:00:00 19,1 12,6 21,5 14 8 33 18 NE 1022,2 10 0,0
14.07.2019 13:00:00 18,4 12,4 18,8 15 8 32 17 NE 1022,3 - 0,0
14.07.2019 12:00:00 17,5 12,6 19,5 14 8 35 19 NE 1022,4 - 0,0
14.07.2019 11:00:00 17,8 12,7 17,4 16 9 40 22 ENE 1022,5 10 0,0
14.07.2019 10:00:00 16,6 11,9 16,8 18 10 40 22 ENE 1022,3 - 0,0
14.07.2019 09:00:00 16,5 11,4 16,1 16 9 40 21 NE 1021,9 - 0,0
14.07.2019 08:00:00 16,2 12,4 15,7 16 9 36 19 E 1021,6 - 0,0
14.07.2019 07:00:00 16,5 11,8 15,6 14 8 31 17 NE 1021,3 - 0,0
14.07.2019 06:00:00 15,9 12,6 13,7 14 8 27 14 ENE 1021,1 - 0,0
14.07.2019 05:00:00 14,4 12,1 12,9 11 6 19 10 ENE 1021,3 - 0,0
14.07.2019 04:00:00 13,9 11,6 13,0 14 7 19 10 E 1021,7 - 0,0
14.07.2019 03:00:00 14,3 11,8 13,6 11 6 24 13 E 1021,9 - 0,0
14.07.2019 02:00:00 15,1 12,4 14,4 12 7 25 14 ESE 1021,9 - 0,0
14.07.2019 01:00:00 16,6 12,9 15,9 16 9 31 17 E 1021,8 - 0,0
14.07.2019 00:00:00 17,8 15,8 17,1 14 7 31 17 NE 1021,8 - 0,0
13.07.2019 23:00:00 18,0 15,1 17,2 13 7 31 17 NE 1021,8 - 0,0
13.07.2019 22:00:00 18,3 15,0 17,8 15 8 29 16 NNE 1021,5 - 0,0
13.07.2019 21:00:00 18,3 15,4 18,2 11 6 26 14 NE 1021,5 - 0,0
13.07.2019 20:00:00 18,9 15,8 20,2 10 6 25 14 NE 1021,2 17 0,0
13.07.2019 19:00:00 19,1 15,4 21,0 11 6 28 15 NE 1021,4 - 0,0
13.07.2019 18:00:00 19,3 15,4 21,5 14 8 27 15 NNE 1021,6 - 0,0
13.07.2019 17:00:00 19,4 15,3 21,9 12 7 29 16 NE 1021,9 - 0,0
13.07.2019 16:00:00 20,5 15,5 23,5 19 11 26 14 N 1022,1 - 0,0
13.07.2019 15:00:00 20,2 15,2 24,4 15 8 21 12 N 1022,0 - 0,0
13.07.2019 14:00:00 19,7 14,9 22,9 14 8 21 12 NNE 1022,1 17 0,0
13.07.2019 13:00:00 19,1 14,4 21,8 13 7 20 11 NNE 1021,9 - 0,0
13.07.2019 12:00:00 19,1 14,4 22,2 9 5 29 15 NE 1021,7 - 0,0
13.07.2019 11:00:00 19,3 15,0 20,4 13 7 27 15 NE 1021,6 17 0,0
13.07.2019 10:00:00 18,5 15,6 20,4 11 6 26 14 NNE 1021,2 - 0,0
13.07.2019 09:00:00 17,7 15,0 17,9 6 3 11 6 NNW 1021,0 - 0,0
13.07.2019 08:00:00 14,9 13,1 14,4 5 3 13 7 S 1020,3 - 0,0
13.07.2019 07:00:00 13,8 12,4 12,9 4 2 11 6 NNW 1020,1 - 0,0
13.07.2019 06:00:00 14,3 12,7 13,3 5 3 10 6 S 1019,7 - 0,0
13.07.2019 05:00:00 14,8 12,5 12,3 4 2 9 5 S 1019,4 17 0,0
13.07.2019 04:00:00 15,9 12,8 14,8 4 2 11 6 S 1019,1 - 0,0
13.07.2019 03:00:00 17,5 13,6 15,7 5 3 15 8 N 1018,7 - 0,0
13.07.2019 02:00:00 17,5 13,8 16,0 4 2 16 8 S 1018,7 21 0,0
13.07.2019 01:00:00 18,1 14,2 17,5 9 5 24 13 NNW 1018,6 - 0,0
13.07.2019 00:00:00 18,2 14,9 17,5 17 9 31 17 WNW 1018,3 - 0,0
12.07.2019 23:00:00 18,4 14,7 17,8 16 9 32 18 W 1018,2 14 0,0
12.07.2019 22:00:00 18,4 14,9 17,9 17 9 36 20 W 1017,8 - 0,0
12.07.2019 21:00:00 18,8 15,5 18,7 22 12 38 20 W 1017,2 - 0,0
12.07.2019 20:00:00 19,2 15,9 20,1 23 12 38 21 WNW 1016,9 14 0,0
12.07.2019 19:00:00 19,7 16,3 20,9 22 12 38 20 WNW 1016,6 - 0,0
12.07.2019 18:00:00 19,8 16,8 20,9 23 12 38 20 WNW 1016,5 - 0,0
12.07.2019 17:00:00 19,8 16,4 21,2 26 14 40 22 WNW 1016,5 14 0,0
12.07.2019 16:00:00 19,8 16,2 22,1 24 13 41 22 WNW 1016,2 - 0,0
12.07.2019 15:00:00 19,6 16,1 21,3 23 12 39 21 WNW 1016,3 - 0,0
12.07.2019 14:00:00 18,8 15,7 19,9 29 16 40 22 WNW 1016,3 14 0,0
12.07.2019 13:00:00 19,0 15,7 19,8 19 11 37 20 W 1015,8 - 0,0
12.07.2019 12:00:00 18,4 15,8 19,7 23 12 37 20 WNW 1015,6 - 0,0
12.07.2019 11:00:00 19,1 16,5 19,5 19 10 36 19 W 1015,1 18 0,0
12.07.2019 10:00:00 18,0 16,0 18,7 22 12 37 20 WNW 1015,0 - 0,0
12.07.2019 09:00:00 17,8 16,0 17,8 19 10 38 21 W 1014,8 - 0,0
12.07.2019 08:00:00 17,5 15,7 16,8 19 11 39 21 W 1014,3 18 0,0
12.07.2019 07:00:00 16,6 15,1 15,2 16 9 23 13 WSW 1014,0 - 0,0
12.07.2019 06:00:00 16,0 14,5 15,0 10 6 23 13 SW 1013,8 - 0,0
12.07.2019 05:00:00 15,8 14,0 15,3 9 5 22 12 SSW 1013,6 15 0,0
12.07.2019 04:00:00 16,6 14,6 16,0 11 6 26 14 WSW 1013,6 - 0,0
12.07.2019 03:00:00 16,6 14,4 15,0 14 8 23 12 W 1013,9 - 0,0
12.07.2019 02:00:00 15,9 13,6 15,1 7 4 26 14 SSW 1013,9 10 0,0
12.07.2019 01:00:00 17,1 14,6 15,7 17 9 32 17 WNW 1014,3 - 0,0
12.07.2019 00:00:00 16,4 14,2 15,2 15 8 23 12 W 1014,5 - 0,0
11.07.2019 23:00:00 16,3 13,6 15,5 11 6 24 13 WSW 1013,9 18 0,0
11.07.2019 22:00:00 17,2 13,9 16,8 16 9 30 16 W 1013,8 - 0,0
11.07.2019 21:00:00 17,9 14,0 17,7 19 10 31 17 WNW 1014,2 - 0,0
11.07.2019 20:00:00 19,8 14,4 20,7 13 7 18 10 WNW 1013,9 18 0,0
11.07.2019 19:00:00 20,3 14,6 21,2 13 7 22 12 NW 1014,1 - 0,0
11.07.2019 18:00:00 19,9 14,3 21,2 14 8 22 12 NW 1014,1 - 0,0
11.07.2019 17:00:00 20,5 14,2 22,2 12 6 19 10 NW 1014,0 18 0,0
11.07.2019 16:00:00 20,6 13,8 24,6 11 6 19 10 NW 1014,3 - 0,0
11.07.2019 15:00:00 21,3 13,7 26,3 16 8 26 14 NNW 1014,2 - 0,0
11.07.2019 14:00:00 23,4 14,4 27,2 10 5 16 9 NNW 1014,2 - 0,0
11.07.2019 13:00:00 23,1 14,1 24,3 6 4 14 8 N 1014,2 - 0,0
11.07.2019 12:00:00 21,5 14,2 24,5 5 3 9 5 NW 1014,2 - 0,0
11.07.2019 11:00:00 20,2 12,2 20,0 5 3 10 5 SW 1014,2 16 0,0
11.07.2019 10:00:00 18,3 13,6 18,3 4 2 11 6 SSW 1014,6 - 0,0
11.07.2019 09:00:00 17,3 13,4 16,8 7 4 13 7 S 1014,4 - 0,0
11.07.2019 08:00:00 16,5 13,2 16,0 5 3 12 7 S 1014,3 - 0,0
11.07.2019 07:00:00 15,9 12,6 15,4 5 3 11 6 SSW 1014,9 - 0,0
11.07.2019 06:00:00 16,0 12,5 15,6 4 2 10 5 S 1014,3 - 0,0
11.07.2019 05:00:00 16,4 12,6 16,0 4 2 13 7 S 1014,9 - 0,0
11.07.2019 04:00:00 16,6 12,5 16,2 9 5 13 7 SSW 1015,1 - 0,0
11.07.2019 03:00:00 16,6 12,5 16,1 9 5 18 10 S 1015,5 - 0,0
11.07.2019 02:00:00 16,4 12,6 16,2 12 6 18 10 S 1015,7 - 0,0
11.07.2019 01:00:00 16,9 12,6 16,7 10 5 14 8 S 1016,0 - 0,0
11.07.2019 00:00:00 17,3 12,4 14,6 7 4 10 6 S 1016,6 - 0,0
10.07.2019 23:00:00 17,3 12,6 14,1 0 0 5 3 N 1017,1 10 0,0
10.07.2019 22:00:00 17,8 12,7 15,8 4 2 5 3 E 1017,2 - 0,0
10.07.2019 21:00:00 18,7 12,9 19,0 4 2 11 6 NE 1017,9 - 0,0
10.07.2019 20:00:00 19,2 13,1 20,4 4 2 10 5 NNE 1018,2 - 0,0
10.07.2019 19:00:00 20,3 13,5 21,6 7 4 16 9 N 1018,5 - 0,0
10.07.2019 18:00:00 20,2 13,2 22,5 8 4 16 9 NNE 1018,8 - 0,0
10.07.2019 17:00:00 20,5 13,2 23,2 9 5 16 9 NNE 1019,0 - 0,0
10.07.2019 16:00:00 20,7 12,9 26,7 9 5 16 9 NNE 1019,6 - 0,0
10.07.2019 15:00:00 20,6 13,3 26,6 10 6 19 10 NNE 1020,1 - 0,0
10.07.2019 14:00:00 22,0 14,4 26,4 9 5 16 8 N 1020,6 - 0,0
10.07.2019 13:00:00 21,9 14,5 24,1 9 5 12 7 NNW 1020,7 - 0,0
10.07.2019 12:00:00 21,8 14,7 22,7 7 4 15 8 NNW 1020,9 - 0,0
10.07.2019 11:00:00 22,2 13,3 26,5 8 4 13 7 N 1020,8 15 0,0
10.07.2019 10:00:00 20,5 11,7 21,0 8 4 16 9 SSW 1020,5 - 0,0
10.07.2019 09:00:00 17,2 12,1 16,0 10 6 20 11 S 1020,6 - 0,0
10.07.2019 08:00:00 12,8 10,7 12,3 13 7 20 11 S 1020,7 - 0,0
10.07.2019 07:00:00 12,0 10,2 11,5 9 5 17 9 S 1021,0 - 0,0
10.07.2019 06:00:00 11,8 10,2 11,4 11 6 16 9 S 1020,8 - 0,0
10.07.2019 05:00:00 12,3 10,5 11,9 8 5 13 7 S 1020,9 17 0,0
10.07.2019 04:00:00 12,7 10,8 12,2 8 5 12 6 S 1021,1 - 0,0
10.07.2019 03:00:00 13,3 10,8 12,6 6 4 9 5 S 1021,3 - 0,0
10.07.2019 02:00:00 13,9 11,1 13,1 5 3 8 4 S 1021,6 19 0,0
10.07.2019 01:00:00 15,2 11,4 11,3 0 0 4 2 N 1021,7 - 0,0
10.07.2019 00:00:00 15,9 11,3 12,3 2 1 11 6 ENE 1021,6 - 0,0

tt = Température de l'air
td = dewpoint
tt 5cm = Température de l'air 5cm
ff = Vitesse du vent
fx = gusts
dd = Direction du vent
ppp = reduced air pressure
vv = visibility
rr = Quantités de précipitations

stations d'obs. à proximité